NORTHEAST SUFFOLK  -  Special Weather Statement Special Weather Statement        NORTHERN NASSAU  -  Special Weather Statement Special Weather Statement        NORTHWEST SUFFOLK  -  Special Weather Statement Special Weather Statement        SOUTHEAST SUFFOLK  -  Special Weather Statement Special Weather Statement        SOUTHERN NASSAU  -  Special Weather Statement Special Weather Statement        SOUTHWEST SUFFOLK  -  Special Weather Statement Special Weather Statement      

Active alerts

Northern Nassau
  Details for Northern Nassau Special Weather Statement
Southern Nassau
  Details for Southern Nassau Special Weather Statement
Northwest Suffolk
  Details for Northwest Suffolk Special Weather Statement
Southwest Suffolk
  Details for Southwest Suffolk Special Weather Statement
Northeast Suffolk
  Details for Northeast Suffolk Special Weather Statement
Southeast Suffolk
  Details for Southeast Suffolk Special Weather Statement


WXM80 ListenWXM80 Stop

You find our weather info also at:

UK Metoffice

WeatherCloud

Weather Underground

Northeastern Weather Network

AWEKAS

Citizen Weather Observer Program (CWOP)

HAMweather, WeatherForYou, PWS Weather


Weather Underground History page Text

Daily Summary for January 17, 2017 Units:  Metric    English   Both
« Previous Day
Next Day »
Daily Weekly Monthly Yearly Custom
  High: Low: Average:
Temperature: 4.9 °C 2.8 °C 3.7 °C
Dew Point: 3.7 °C -1.2 °C 1.3 °C
Humidity: 97 % 69 % 85 %
Wind Speed: 14.5 km/h 0 km/h 3.2 km/h
Wind Gust: 22.5 km/h - -
Wind:- - ESE
Pressure: 1024.3 hPa 1013.1 hPa -
Precipitation: 0 mm    
Historical Graphs
 
 
Tabular Data for January 17, 2017
Time Temperature Dew Point Pressure Wind Wind Speed Wind Gust Humidity Rainfall Rate (Hourly)
00:02 3.7 °C -1.1 °C 1024.3 hPa WSW 0.6 km/h 5.6 km/h 71 % 0 mm
00:07 3.7 °C -1.2 °C 1023.9 hPa WSW 1.9 km/h 7.4 km/h 70 % 0 mm
00:12 3.8 °C -1.2 °C 1023.9 hPa SSW 4.7 km/h 5.6 km/h 70 % 0 mm
00:17 3.8 °C -1.2 °C 1023.9 hPa SSW 3.2 km/h 5.6 km/h 70 % 0 mm
00:22 3.8 °C -1.2 °C 1023.9 hPa SW 1.6 km/h 5.6 km/h 70 % 0 mm
00:27 3.8 °C -1.2 °C 1023.6 hPa SW 0.2 km/h 3.7 km/h 70 % 0 mm
00:32 3.8 °C -1.2 °C 1023.6 hPa SSW 4 km/h 6.4 km/h 70 % 0 mm
00:37 3.9 °C -1.1 °C 1023.6 hPa SW 0.3 km/h 5.6 km/h 70 % 0 mm
00:42 3.9 °C -1.2 °C 1023.6 hPa WSW 1.3 km/h 5.6 km/h 69 % 0 mm
00:47 3.9 °C -1.1 °C 1023.6 hPa SW 3.2 km/h 5.6 km/h 70 % 0 mm
00:52 4 °C -1 °C 1023.6 hPa SW 5.3 km/h 7.4 km/h 70 % 0 mm
00:57 4.1 °C -0.9 °C 1023.6 hPa West 3.7 km/h 14.5 km/h 70 % 0 mm
01:03 4.1 °C -1.1 °C 1023.6 hPa SSW 6.3 km/h 8 km/h 69 % 0 mm
01:08 4.1 °C -0.9 °C 1023.6 hPa SW 8.5 km/h 9.7 km/h 70 % 0 mm
01:13 4.2 °C -0.8 °C 1023.6 hPa SW 4.8 km/h 11.3 km/h 70 % 0 mm
01:18 4.2 °C -0.8 °C 1023.6 hPa SW 5.8 km/h 5.8 km/h 70 % 0 mm
01:23 4.2 °C -0.8 °C 1023.6 hPa WSW 4.5 km/h 11.1 km/h 70 % 0 mm
01:28 4.2 °C -0.8 °C 1023.6 hPa WSW 4.3 km/h 8 km/h 70 % 0 mm
01:33 4.2 °C -0.8 °C 1023.6 hPa SW 7.9 km/h 13 km/h 70 % 0 mm
01:38 4.2 °C -0.8 °C 1023.6 hPa WSW 5.5 km/h 11.1 km/h 70 % 0 mm
01:43 4.2 °C -0.8 °C 1023.6 hPa SW 5.1 km/h 9.3 km/h 70 % 0 mm
01:48 4.2 °C -0.8 °C 1023.6 hPa SSW 8.4 km/h 14.8 km/h 70 % 0 mm
01:53 4.2 °C -0.8 °C 1023.6 hPa WSW 6.6 km/h 9.7 km/h 70 % 0 mm
01:58 4.2 °C -0.8 °C 1023.6 hPa SW 3.5 km/h 5.6 km/h 70 % 0 mm
02:03 4.1 °C -0.9 °C 1023.6 hPa SSW 4.8 km/h 8 km/h 70 % 0 mm
02:08 4.1 °C -0.9 °C 1023.6 hPa WSW 7.1 km/h 11.1 km/h 70 % 0 mm
02:13 4.1 °C -0.9 °C 1023.6 hPa SW 4.2 km/h 7.4 km/h 70 % 0 mm
02:18 4.1 °C -0.9 °C 1023.6 hPa SW 2.7 km/h 5.6 km/h 70 % 0 mm
02:23 4 °C -1 °C 1023.2 hPa SW 2.1 km/h 5.6 km/h 70 % 0 mm
02:29 3.9 °C -1.1 °C 1023.2 hPa WSW 2.4 km/h 7.4 km/h 70 % 0 mm
02:34 3.9 °C -1.1 °C 1023.2 hPa WSW 3.2 km/h 5.6 km/h 70 % 0 mm
02:39 3.9 °C -0.9 °C 1023.2 hPa WSW 0.5 km/h 1.6 km/h 71 % 0 mm
02:44 3.8 °C -1.2 °C 1022.9 hPa Calm   6.4 km/h 70 % 0 mm
02:49 3.8 °C -1 °C 1022.9 hPa West 3.2 km/h 6.4 km/h 71 % 0 mm
02:54 3.8 °C -1 °C 1022.9 hPa WSW 1.6 km/h 9.7 km/h 71 % 0 mm
02:59 3.7 °C -1.1 °C 1022.6 hPa SW 0.2 km/h   71 % 0 mm
03:04 3.7 °C -1.1 °C 1022.6 hPa Calm   4.8 km/h 71 % 0 mm
03:09 3.7 °C -1.1 °C 1022.6 hPa Calm   1.6 km/h 71 % 0 mm
03:14 3.6 °C -1.2 °C 1022.6 hPa Calm   3.2 km/h 71 % 0 mm
03:19 3.6 °C -1 °C 1022.6 hPa Calm   1.6 km/h 72 % 0 mm
03:24 3.5 °C -1.1 °C 1022.6 hPa SW 1.6 km/h 4.8 km/h 72 % 0 mm
03:29 3.4 °C -1.1 °C 1022.6 hPa SW 1.6 km/h 4.8 km/h 72 % 0 mm
03:34 3.4 °C -1.2 °C 1022.6 hPa Calm   6.4 km/h 72 % 0 mm
03:39 3.3 °C -1.1 °C 1022.6 hPa Calm   4.8 km/h 73 % 0 mm
03:44 3.3 °C -1.1 °C 1022.6 hPa Calm   6.4 km/h 73 % 0 mm
03:49 3.2 °C -1.2 °C 1022.6 hPa SW 0.5 km/h 3.7 km/h 73 % 0 mm
03:54 3.2 °C -1.2 °C 1022.6 hPa SW 1.1 km/h 3.7 km/h 73 % 0 mm
03:59 3.2 °C -1.2 °C 1022.6 hPa WSW 2.6 km/h 5.6 km/h 73 % 0 mm
04:04 3.2 °C -1 °C 1022.6 hPa Calm     74 % 0 mm
04:09 3.2 °C -1 °C 1022.6 hPa WSW 0.6 km/h 3.2 km/h 74 % 0 mm
04:14 3.2 °C -0.9 °C 1022.6 hPa WSW 2.4 km/h 5.6 km/h 74 % 0 mm
04:19 3.3 °C -0.9 °C 1022.6 hPa WNW 1.9 km/h 5.6 km/h 74 % 0 mm
04:24 3.3 °C -0.9 °C 1022.6 hPa Calm   1.9 km/h 74 % 0 mm
04:29 3.3 °C -0.9 °C 1022.2 hPa West 3.4 km/h 5.6 km/h 74 % 0 mm
04:35 3.4 °C -0.8 °C 1022.2 hPa West 1.6 km/h 5.6 km/h 74 % 0 mm
04:40 3.4 °C -0.8 °C 1022.6 hPa West 2.4 km/h 5.6 km/h 74 % 0 mm
04:45 3.4 °C -0.8 °C 1022.6 hPa West 0.3 km/h 5.6 km/h 74 % 0 mm
04:50 3.5 °C -0.7 °C 1022.6 hPa Calm     74 % 0 mm
04:55 3.6 °C -0.7 °C 1022.6 hPa Calm   1.9 km/h 74 % 0 mm
05:00 3.6 °C -0.6 °C 1022.2 hPa West 0.3 km/h 3.7 km/h 74 % 0 mm
05:05 3.7 °C -0.6 °C 1022.2 hPa Calm   1.9 km/h 74 % 0 mm
05:10 3.7 °C -0.6 °C 1022.2 hPa Calm     74 % 0 mm
05:15 3.7 °C -0.5 °C 1022.2 hPa Calm     74 % 0 mm
05:20 3.7 °C -0.5 °C 1022.2 hPa Calm     74 % 0 mm
05:25 3.7 °C -0.5 °C 1021.9 hPa Calm     74 % 0 mm
05:30 3.7 °C -0.5 °C 1022.2 hPa Calm     74 % 0 mm
05:35 3.8 °C -0.4 °C 1021.9 hPa Calm     74 % 0 mm
05:40 3.8 °C -0.4 °C 1021.9 hPa Calm     74 % 0 mm
05:46 3.8 °C -0.4 °C 1022.2 hPa Calm     74 % 0 mm
05:51 3.7 °C -0.3 °C 1022.6 hPa Calm     75 % 0 mm
05:56 3.7 °C -0.6 °C 1022.6 hPa Calm     74 % 0 mm
06:01 3.7 °C -0.3 °C 1022.6 hPa Calm     75 % 0 mm
06:06 3.6 °C -0.4 °C 1022.6 hPa Calm     75 % 0 mm
06:11 3.6 °C -0.4 °C 1022.2 hPa Calm     75 % 0 mm
06:16 3.5 °C -0.3 °C 1022.2 hPa Calm     76 % 0 mm
06:21 3.4 °C -0.4 °C 1022.6 hPa Calm     76 % 0 mm
06:26 3.3 °C -0.5 °C 1022.6 hPa Calm     76 % 0 mm
06:31 3.3 °C -0.5 °C 1022.6 hPa Calm     76 % 0 mm
06:36 3.2 °C -0.4 °C 1022.2 hPa Calm     77 % 0 mm
06:41 3.2 °C -0.5 °C 1022.2 hPa Calm     77 % 0 mm
06:46 3.2 °C -0.5 °C 1022.6 hPa Calm     77 % 0 mm
06:51 3.1 °C -0.6 °C 1022.6 hPa Calm     77 % 0 mm
06:56 3.1 °C -0.6 °C 1022.6 hPa Calm     77 % 0 mm
07:01 3.1 °C -0.4 °C 1022.6 hPa Calm     78 % 0 mm
07:06 3 °C -0.4 °C 1022.6 hPa Calm     78 % 0 mm
07:11 3 °C -0.3 °C 1022.6 hPa Calm     79 % 0 mm
07:17 3 °C -0.3 °C 1022.6 hPa Calm     79 % 0 mm
07:22 3 °C -0.3 °C 1022.6 hPa Calm     79 % 0 mm
07:27 2.9 °C -0.3 °C 1022.2 hPa Calm     79 % 0 mm
07:32 2.9 °C -0.3 °C 1022.2 hPa Calm     79 % 0 mm
07:37 2.8 °C -0.3 °C 1022.2 hPa Calm     80 % 0 mm
07:42 2.8 °C -0.3 °C 1022.2 hPa Calm     80 % 0 mm
07:47 2.8 °C -0.2 °C 1022.6 hPa West 1.3 km/h 3.2 km/h 81 % 0 mm
07:52 2.8 °C -0.2 °C 1022.6 hPa West 0.5 km/h 1.9 km/h 81 % 0 mm
07:57 2.8 °C -0.2 °C 1022.6 hPa Calm     81 % 0 mm
08:02 2.8 °C -0.2 °C 1022.6 hPa Calm     81 % 0 mm
08:07 2.8 °C -0.1 °C 1022.6 hPa Calm     81 % 0 mm
08:12 2.9 °C -0.1 °C 1022.9 hPa Calm     81 % 0 mm
08:17 2.9 °C 0.2 °C 1022.9 hPa Calm     82 % 0 mm
08:22 3 °C 0.2 °C 1022.9 hPa Calm   1.6 km/h 82 % 0 mm
08:27 3.1 °C 0.3 °C 1022.9 hPa Calm     82 % 0 mm
08:32 3.2 °C 0.2 °C 1022.6 hPa Calm     81 % 0 mm
08:37 3.3 °C 0.3 °C 1022.6 hPa Calm     81 % 0 mm
08:43 3.4 °C 0.5 °C 1022.6 hPa Calm     81 % 0 mm
08:47 3.6 °C 0.3 °C 1022.6 hPa Calm     79 % 0 mm
08:53 3.7 °C 0.4 °C 1022.6 hPa Calm     79 % 0 mm
08:58 3.8 °C 0.2 °C 1022.6 hPa Calm     77 % 0 mm
09:03 3.9 °C 0.1 °C 1022.6 hPa Calm     76 % 0 mm
09:08 4.1 °C 0.2 °C 1022.6 hPa Calm     76 % 0 mm
09:13 4.2 °C 0.2 °C 1022.6 hPa West 0.8 km/h 1.9 km/h 75 % 0 mm
09:18 4.3 °C 0.3 °C 1022.6 hPa Calm     75 % 0 mm
09:23 4.4 °C 0.4 °C 1022.6 hPa West 0.5 km/h 3.7 km/h 75 % 0 mm
09:28 4.6 °C 0.3 °C 1022.9 hPa Calm     74 % 0 mm
09:33 4.6 °C 0.3 °C 1022.9 hPa Calm     74 % 0 mm
09:38 4.6 °C 0.2 °C 1022.6 hPa Calm     73 % 0 mm
09:43 4.7 °C 0.4 °C 1022.9 hPa Calm     74 % 0 mm
09:48 4.7 °C 0.2 °C 1022.9 hPa Calm     73 % 0 mm
09:53 4.7 °C 0.5 °C 1022.9 hPa Calm     74 % 0 mm
09:58 4.7 °C 0.5 °C 1022.9 hPa Calm     74 % 0 mm
10:03 4.7 °C 0.7 °C 1022.9 hPa Calm     75 % 0 mm
10:08 4.8 °C 0.6 °C 1022.9 hPa NNE 0.3 km/h 1.9 km/h 74 % 0 mm
10:14 4.8 °C 0.6 °C 1022.9 hPa Calm   1.9 km/h 74 % 0 mm
10:19 4.9 °C 0.4 °C 1022.9 hPa Calm     73 % 0 mm
10:24 4.9 °C 0.7 °C 1022.6 hPa NNE 0.3 km/h 3.7 km/h 74 % 0 mm
10:29 4.9 °C 0.7 °C 1022.6 hPa NNE 1.6 km/h 4.8 km/h 74 % 0 mm
10:34 4.9 °C 1 °C 1022.6 hPa NNE 3.2 km/h 4.8 km/h 76 % 0 mm
10:39 4.8 °C 1.1 °C 1022.6 hPa NNE 3.2 km/h 6.4 km/h 77 % 0 mm
10:44 4.8 °C 1.1 °C 1022.6 hPa NNE 3.2 km/h 6.4 km/h 77 % 0 mm
10:49 4.8 °C 1.3 °C 1022.2 hPa NNE 0.5 km/h 1.9 km/h 78 % 0 mm
10:54 4.8 °C 1.6 °C 1022.2 hPa Calm   3.2 km/h 80 % 0 mm
10:59 4.8 °C 1.9 °C 1022.2 hPa Calm     82 % 0 mm
11:04 4.8 °C 1.9 °C 1022.2 hPa Calm   1.9 km/h 82 % 0 mm
11:09 4.8 °C 2.3 °C 1022.2 hPa Calm     84 % 0 mm
11:14 4.7 °C 2.2 °C 1022.2 hPa NNE 1 km/h 3.7 km/h 84 % 0 mm
11:19 4.7 °C 2.2 °C 1022.2 hPa Calm     84 % 0 mm
11:24 4.6 °C 2.1 °C 1022.2 hPa Calm     84 % 0 mm
11:29 4.6 °C 2.1 °C 1021.9 hPa Calm   1.6 km/h 84 % 0 mm
11:34 4.6 °C 2.3 °C 1021.9 hPa Calm     85 % 0.25 mm
11:39 4.6 °C 2.4 °C 1021.6 hPa NNE 0.3 km/h 1.9 km/h 86 % 0.25 mm
11:44 4.4 °C 2.3 °C 1021.6 hPa Calm   3.7 km/h 86 % 0.25 mm
11:50 4.4 °C 2.4 °C 1021.6 hPa NNE 0.3 km/h 3.7 km/h 87 % 0.25 mm
11:55 4.3 °C 2.3 °C 1021.6 hPa NNE 1.3 km/h 3.7 km/h 87 % 0.25 mm
12:00 4.3 °C 2.5 °C 1021.2 hPa NNE 2.3 km/h 5.6 km/h 88 % 0.25 mm
12:05 4.3 °C 2.4 °C 1021.2 hPa NNE 1.9 km/h 3.7 km/h 88 % 0.25 mm
12:10 4.2 °C 2.6 °C 1020.9 hPa NNE 1.1 km/h 1.9 km/h 89 % 0.25 mm
12:15 4.2 °C 2.5 °C 1020.9 hPa ENE 1.6 km/h 3.7 km/h 89 % 0.25 mm
12:20 4.2 °C 2.5 °C 1020.9 hPa ENE 1.1 km/h 3.7 km/h 89 % 0.25 mm
12:25 4.1 °C 2.4 °C 1020.9 hPa ENE 0.5 km/h 3.7 km/h 89 % 0.25 mm
12:30 4.1 °C 2.6 °C 1020.9 hPa ENE 2.4 km/h 3.7 km/h 90 % 0.25 mm
12:35 4.1 °C 2.6 °C 1020.9 hPa ENE 2.7 km/h 5.6 km/h 90 % 0 mm
12:40 4 °C 2.5 °C 1020.9 hPa ENE 3.2 km/h 5.6 km/h 90 % 0 mm
12:45 3.9 °C 2.4 °C 1020.5 hPa ENE 0.6 km/h 3.7 km/h 90 % 0 mm
12:50 3.9 °C 2.4 °C 1020.5 hPa ENE 3.9 km/h 5.6 km/h 90 % 0 mm
12:55 3.9 °C 2.4 °C 1020.2 hPa ENE 3.5 km/h 5.6 km/h 90 % 0 mm
13:00 3.9 °C 2.6 °C 1020.2 hPa East 0.6 km/h 3.7 km/h 91 % 0.25 mm
13:05 3.9 °C 2.6 °C 1020.2 hPa East 4 km/h 5.6 km/h 91 % 0.25 mm
13:10 3.8 °C 2.4 °C 1020.2 hPa East 1.4 km/h 4.8 km/h 91 % 0.25 mm
13:15 3.7 °C 2.4 °C 1020.2 hPa East 2.6 km/h 4.8 km/h 91 % 0.25 mm
13:21 3.7 °C 2.3 °C 1020.2 hPa East 3.2 km/h 5.6 km/h 91 % 0.25 mm
13:26 3.6 °C 2.3 °C 1019.9 hPa East 2.7 km/h 5.6 km/h 91 % 0.25 mm
13:31 3.6 °C 2.3 °C 1019.9 hPa East 1.6 km/h 3.7 km/h 91 % 0.51 mm
13:36 3.6 °C 2.3 °C 1019.5 hPa Calm     91 % 0.51 mm
13:41 3.6 °C 2.2 °C 1019.5 hPa East 1.8 km/h 3.7 km/h 91 % 0.51 mm
13:46 3.6 °C 2.2 °C 1019.5 hPa East 3.1 km/h 5.6 km/h 91 % 0.51 mm
13:51 3.5 °C 2.2 °C 1019.5 hPa East 1.4 km/h 3.7 km/h 91 % 0.51 mm
13:56 3.5 °C 2.2 °C 1019.2 hPa East 2.3 km/h 3.7 km/h 91 % 0.51 mm
14:01 3.5 °C 2.2 °C 1019.5 hPa East 2.3 km/h 3.7 km/h 91 % 0.25 mm
14:06 3.5 °C 2.2 °C 1019.5 hPa East 1.8 km/h 3.7 km/h 91 % 0.25 mm
14:11 3.4 °C 2.1 °C 1019.5 hPa East 1.1 km/h 1.9 km/h 91 % 0.25 mm
14:16 3.4 °C 2.1 °C 1019.5 hPa East 2.3 km/h 3.7 km/h 91 % 0.25 mm
14:22 3.4 °C 2.2 °C 1019.2 hPa East 3.4 km/h 7.4 km/h 92 % 0.51 mm
14:27 3.4 °C 2.2 °C 1019.5 hPa East 0.3 km/h 3.7 km/h 92 % 0.51 mm
14:32 3.3 °C 2.2 °C 1019.5 hPa East 0.5 km/h 3.7 km/h 92 % 0.25 mm
14:37 3.3 °C 2.2 °C 1019.2 hPa East 3.4 km/h 5.6 km/h 92 % 0.25 mm
14:42 3.3 °C 2.2 °C 1019.5 hPa East 2.6 km/h 5.6 km/h 92 % 0.25 mm
14:47 3.3 °C 2.2 °C 1019.2 hPa East 4.3 km/h 7.4 km/h 92 % 0.25 mm
14:52 3.3 °C 2.3 °C 1019.2 hPa East 4.3 km/h 7.4 km/h 93 % 0.25 mm
14:57 3.3 °C 2.3 °C 1019.2 hPa East 3.5 km/h 5.6 km/h 93 % 0.25 mm
15:02 3.2 °C 2.1 °C 1019.2 hPa East 0.8 km/h 3.7 km/h 92 % 0.25 mm
15:07 3.2 °C 2.2 °C 1019.5 hPa East 2.1 km/h 5.6 km/h 93 % 0.25 mm
15:12 3.2 °C 2.2 °C 1019.2 hPa East 0.5 km/h 3.7 km/h 93 % 0.25 mm
15:17 3.2 °C 2.2 °C 1019.5 hPa East 1.6 km/h 3.2 km/h 93 % 0.25 mm
15:22 3.2 °C 2.2 °C 1019.2 hPa East 2.3 km/h 3.7 km/h 93 % 0 mm
15:27 3.2 °C 2.2 °C 1018.8 hPa East 3.5 km/h 7.4 km/h 93 % 0 mm
15:32 3.2 °C 2.2 °C 1018.8 hPa East 3.5 km/h 5.6 km/h 93 % 0 mm
15:37 3.2 °C 2.2 °C 1018.8 hPa East 6 km/h 9.7 km/h 93 % 0 mm
15:43 3.3 °C 2.4 °C 1018.8 hPa East 7.9 km/h 9.3 km/h 94 % 0 mm
15:48 3.3 °C 2.4 °C 1018.5 hPa East 7.7 km/h 9.3 km/h 94 % 0 mm
15:53 3.3 °C 2.4 °C 1018.5 hPa East 7.6 km/h 11.3 km/h 94 % 0 mm
15:58 3.3 °C 2.4 °C 1018.5 hPa East 6.3 km/h 9.3 km/h 94 % 0 mm
16:03 3.3 °C 2.4 °C 1018.2 hPa East 7.4 km/h 11.1 km/h 94 % 0 mm
16:08 3.3 °C 2.4 °C 1018.5 hPa East 5.8 km/h 7.4 km/h 94 % 0 mm
16:13 3.3 °C 2.4 °C 1018.5 hPa East 5.6 km/h 7.4 km/h 94 % 0 mm
16:18 3.3 °C 2.4 °C 1018.5 hPa East 3.5 km/h 5.6 km/h 94 % 0 mm
16:23 3.3 °C 2.4 °C 1018.5 hPa East 6.6 km/h 9.7 km/h 94 % 0 mm
16:28 3.3 °C 2.4 °C 1018.5 hPa East 3.4 km/h 8 km/h 94 % 0 mm
16:33 3.3 °C 2.6 °C 1018.2 hPa East 2.7 km/h 5.6 km/h 95 % 0 mm
16:38 3.3 °C 2.6 °C 1018.5 hPa East 1.1 km/h 1.9 km/h 95 % 0 mm
16:44 3.3 °C 2.6 °C 1018.2 hPa Calm     95 % 0 mm
16:49 3.3 °C 2.6 °C 1018.5 hPa Calm     95 % 0 mm
16:54 3.3 °C 2.6 °C 1018.5 hPa Calm   1.9 km/h 95 % 0 mm
16:59 3.3 °C 2.6 °C 1018.5 hPa East 1 km/h 1.9 km/h 95 % 0 mm
17:04 3.3 °C 2.6 °C 1018.5 hPa East 0.3 km/h 1.9 km/h 95 % 0 mm
17:09 3.3 °C 2.6 °C 1018.5 hPa Calm     95 % 0 mm
17:14 3.3 °C 2.6 °C 1018.5 hPa East 0.5 km/h 1.9 km/h 95 % 0 mm
17:19 3.3 °C 2.6 °C 1018.5 hPa East 0.2 km/h 1.9 km/h 95 % 0 mm
17:24 3.3 °C 2.6 °C 1018.5 hPa East 0.2 km/h 1.6 km/h 95 % 0 mm
17:29 3.3 °C 2.6 °C 1018.2 hPa East 0.5 km/h 3.7 km/h 95 % 0 mm
17:34 3.3 °C 2.6 °C 1018.5 hPa East 0.6 km/h 1.9 km/h 95 % 0 mm
17:39 3.3 °C 2.6 °C 1018.5 hPa Calm     95 % 0 mm
17:44 3.3 °C 2.6 °C 1018.8 hPa East 0.3 km/h 1.9 km/h 95 % 0 mm
17:50 3.3 °C 2.6 °C 1018.5 hPa East 2.1 km/h 3.7 km/h 95 % 0 mm
17:55 3.3 °C 2.6 °C 1018.5 hPa East 2.9 km/h 5.6 km/h 95 % 0 mm
18:00 3.3 °C 2.6 °C 1018.2 hPa East 2.4 km/h 5.6 km/h 95 % 0 mm
18:05 3.3 °C 2.6 °C 1018.5 hPa East 1.9 km/h 3.7 km/h 95 % 0 mm
18:10 3.3 °C 2.6 °C 1018.2 hPa East 3.9 km/h 5.6 km/h 95 % 0 mm
18:15 3.4 °C 2.7 °C 1018.2 hPa East 3.5 km/h 5.6 km/h 95 % 0 mm
18:20 3.4 °C 2.7 °C 1018.2 hPa East 3.4 km/h 5.6 km/h 95 % 0 mm
18:25 3.4 °C 2.7 °C 1018.2 hPa East 2.4 km/h 3.7 km/h 95 % 0 mm
18:30 3.5 °C 2.8 °C 1018.2 hPa ENE 3.7 km/h 11.1 km/h 95 % 0 mm
18:35 3.5 °C 2.8 °C 1017.8 hPa East 6 km/h 9.7 km/h 95 % 0 mm
18:40 3.6 °C 3 °C 1017.5 hPa East 8.5 km/h 11.3 km/h 96 % 0 mm
18:45 3.6 °C 3 °C 1017.5 hPa East 6 km/h 9.3 km/h 96 % 0 mm
18:50 3.6 °C 3 °C 1017.5 hPa East 5 km/h 9.7 km/h 96 % 0 mm
18:56 3.5 °C 2.9 °C 1017.5 hPa East 7.9 km/h 9.3 km/h 96 % 0 mm
19:01 3.5 °C 2.9 °C 1017.2 hPa East 7.9 km/h 11.3 km/h 96 % 0 mm
19:06 3.4 °C 2.7 °C 1017.2 hPa East 8.2 km/h 11.1 km/h 95 % 0 mm
19:11 3.4 °C 2.9 °C 1017.2 hPa East 8.2 km/h 13 km/h 96 % 0 mm
19:16 3.4 °C 2.8 °C 1017.2 hPa East 9.3 km/h 11.1 km/h 96 % 0 mm
19:21 3.4 °C 2.8 °C 1016.8 hPa East 10 km/h 14.8 km/h 96 % 0 mm
19:26 3.4 °C 2.8 °C 1016.8 hPa ENE 6.1 km/h 13 km/h 96 % 0 mm
19:31 3.4 °C 2.8 °C 1016.8 hPa East 5.5 km/h 8 km/h 96 % 0.25 mm
19:36 3.4 °C 2.8 °C 1016.8 hPa ENE 7.4 km/h 11.1 km/h 96 % 0.25 mm
19:41 3.4 °C 2.8 °C 1017.2 hPa ENE 10.3 km/h 14.8 km/h 96 % 0.51 mm
19:46 3.4 °C 2.8 °C 1016.8 hPa ENE 6.3 km/h 11.3 km/h 96 % 0.51 mm
19:51 3.4 °C 2.8 °C 1016.8 hPa ENE 7.1 km/h 11.1 km/h 96 % 0.76 mm
19:56 3.4 °C 2.8 °C 1016.5 hPa ENE 8.5 km/h 11.3 km/h 96 % 1.02 mm
20:02 3.4 °C 2.8 °C 1016.5 hPa East 8.4 km/h 9.7 km/h 96 % 1.02 mm
20:07 3.4 °C 2.8 °C 1016.1 hPa East 12.6 km/h 18.5 km/h 96 % 1.27 mm
20:12 3.3 °C 2.8 °C 1016.1 hPa East 11.4 km/h 14.8 km/h 96 % 1.27 mm
20:17 3.3 °C 2.8 °C 1016.5 hPa East 11.1 km/h 14.5 km/h 96 % 1.27 mm
20:22 3.3 °C 2.8 °C 1016.5 hPa East 7.1 km/h 11.1 km/h 96 % 1.27 mm
20:27 3.3 °C 2.8 °C 1016.8 hPa ENE 3.9 km/h 6.4 km/h 96 % 1.27 mm
20:32 3.4 °C 2.8 °C 1016.5 hPa East 7.4 km/h 9.7 km/h 96 % 1.27 mm
20:37 3.4 °C 2.8 °C 1016.1 hPa East 9.5 km/h 11.3 km/h 96 % 1.27 mm
20:42 3.4 °C 2.8 °C 1016.1 hPa East 8.4 km/h 13 km/h 96 % 1.27 mm
20:47 3.4 °C 2.8 °C 1016.1 hPa East 9.2 km/h 13 km/h 96 % 1.02 mm
20:52 3.4 °C 2.8 °C 1016.1 hPa ENE 7.2 km/h 9.7 km/h 96 % 1.02 mm
20:57 3.4 °C 2.8 °C 1016.1 hPa ENE 7.1 km/h 11.1 km/h 96 % 0.76 mm
21:02 3.4 °C 2.8 °C 1015.8 hPa ENE 6.6 km/h 11.1 km/h 96 % 0.76 mm
21:07 3.4 °C 2.9 °C 1015.8 hPa ENE 6.9 km/h 13 km/h 96 % 0.51 mm
21:12 3.4 °C 2.9 °C 1015.8 hPa East 8.2 km/h 14.8 km/h 96 % 0.76 mm
21:17 3.5 °C 2.9 °C 1015.8 hPa East 7.9 km/h 11.1 km/h 96 % 1.02 mm
21:23 3.5 °C 3.1 °C 1015.5 hPa ENE 7.1 km/h 11.1 km/h 97 % 1.02 mm
21:28 3.5 °C 3.1 °C 1015.8 hPa ENE 9.5 km/h 13 km/h 97 % 1.27 mm
21:33 3.6 °C 3.1 °C 1015.8 hPa ENE 8.7 km/h 13 km/h 97 % 1.27 mm
21:38 3.6 °C 3.1 °C 1015.8 hPa ENE 7.6 km/h 11.3 km/h 97 % 1.27 mm
21:43 3.6 °C 3.2 °C 1016.1 hPa ENE 7.1 km/h 11.3 km/h 97 % 1.02 mm
21:48 3.7 °C 3.2 °C 1015.8 hPa ENE 9.2 km/h 13 km/h 97 % 1.27 mm
21:53 3.7 °C 3.2 °C 1015.5 hPa ENE 6.4 km/h 13 km/h 97 % 1.27 mm
21:58 3.7 °C 3.2 °C 1015.5 hPa ENE 6.6 km/h 14.8 km/h 97 % 1.27 mm
22:03 3.7 °C 3.3 °C 1015.5 hPa East 8.7 km/h 13 km/h 97 % 1.27 mm
22:08 3.7 °C 3.3 °C 1015.5 hPa ENE 7.1 km/h 14.8 km/h 97 % 1.27 mm
22:13 3.8 °C 3.3 °C 1015.5 hPa ENE 9 km/h 14.8 km/h 97 % 1.02 mm
22:18 3.8 °C 3.3 °C 1015.5 hPa ENE 9.2 km/h 14.8 km/h 97 % 0.76 mm
22:23 3.8 °C 3.4 °C 1015.5 hPa ENE 10.3 km/h 13 km/h 97 % 0.51 mm
22:28 3.9 °C 3.4 °C 1015.1 hPa ENE 12.1 km/h 14.8 km/h 97 % 0.51 mm
22:33 3.9 °C 3.4 °C 1015.1 hPa East 10 km/h 14.8 km/h 97 % 0.25 mm
22:38 3.9 °C 3.5 °C 1015.1 hPa ENE 9.2 km/h 13 km/h 97 % 0.25 mm
22:43 3.9 °C 3.5 °C 1014.8 hPa ENE 6.8 km/h 11.1 km/h 97 % 0.25 mm
22:48 3.9 °C 3.5 °C 1014.4 hPa East 11.1 km/h 16.1 km/h 97 % 0 mm
22:53 4 °C 3.6 °C 1014.1 hPa East 11.7 km/h 14.8 km/h 97 % 0 mm
22:58 4 °C 3.6 °C 1014.1 hPa ENE 10.5 km/h 14.5 km/h 97 % 0 mm
23:03 4 °C 3.6 °C 1013.8 hPa ENE 10.1 km/h 13 km/h 97 % 0 mm
23:09 4 °C 3.6 °C 1013.8 hPa East 11.6 km/h 14.8 km/h 97 % 0 mm
23:14 4 °C 3.6 °C 1013.8 hPa East 9.2 km/h 12.9 km/h 97 % 0 mm
23:19 4.1 °C 3.6 °C 1013.8 hPa NE 9.7 km/h 14.8 km/h 97 % 0 mm
23:24 4.1 °C 3.6 °C 1013.8 hPa ENE 9 km/h 11.1 km/h 97 % 0 mm
23:29 4.1 °C 3.7 °C 1014.1 hPa ENE 8 km/h 14.5 km/h 97 % 0 mm
23:34 4.1 °C 3.7 °C 1014.1 hPa ENE 9.7 km/h 16.1 km/h 97 % 0 mm
23:39 4.2 °C 3.7 °C 1014.1 hPa ENE 11.3 km/h 16.1 km/h 97 % 0 mm
23:44 4.1 °C 3.7 °C 1013.8 hPa ENE 12.9 km/h 19.3 km/h 97 % 0 mm
23:49 3.9 °C 3.4 °C 1013.8 hPa ENE 14.5 km/h 22.5 km/h 97 % 0 mm
23:54 3.7 °C 3.3 °C 1013.4 hPa ENE 14.5 km/h 20.9 km/h 97 % 0 mm
23:59 3.7 °C 3.2 °C 1013.1 hPa ENE 12.2 km/h 19.3 km/h 97 % 0 mm
Crab Meadow Weather
Compliments of Weather Underground - 3 mb

Script developed by  Jim McMurry - jmcmurry@mwt.net Adapted for the template by  Wim van der Kuil - Leuven-Template.eu

Extremes: In Wyndham, Australia, the temperature reached 90 degrees F for 333 days in 1946.